Regional Weather Roundup
Issued by NWS

Home | Current Version | Previous Version | Graphics & Text | Print | Product List | Glossary On
Versions: 1 2 3 4 5 6 7 8 9 10 11 12 13 14 15 16 17 18 19 20 21 22 23 24 25 26 27 28 29 30 31 32 33 34 35 36 37 38 39 40 41 42 43 44 45 46 47 48 49 50
000
ASUS43 KIND 201709
RWRIN

WEATHER ROUNDUP FOR INDIANA
NATIONAL WEATHER SERVICE INDIANAPOLIS IN
100 PM EDT MON OCT 20 2014

NOTE: "FAIR" INDICATES FEW OR NO CLOUDS BELOW 12,000 FEET WITH NO
SIGNIFICANT WEATHER AND/OR OBSTRUCTIONS TO VISIBILITY.

* - STATION DOES NOT REPORT WEATHER SUCH AS PRECIPITATION OR FOG.

+ - STATION NOT QUALITY CONTROLLED BY THE NATIONAL WEATHER SERVICE.
    USE DATA WITH CAUTION...ESPECIALLY DEWPOINT AND RELATIVE
    HUMIDITY OBSERVATIONS.

INZ001>003-010>013-019-020-201800-
NORTHWEST INDIANA

CITY           SKY/WX    TMP DP  RH WIND       PRES   REMARKS
GARY /AIRPORT/ MOSUNNY   61  46  59 N10       29.85
KNOX *+        MOSUNNY   60  46  60 W7        29.83S
LA PORTE +     MOSUNNY   59  50  72 NW8       29.84S
MICHIGAN CITY+ PTSUNNY   55  45  67 W10       29.85S
MONTICELLO +   SUNNY     61  50  66 SW14      29.84F
RENSSELAER +   SUNNY     63  50  63 W9        29.85S
VALPARAISO     MOSUNNY   59  47  64 W8        29.84F

$$

LMZ046-743>745-201800-
SOUTHERN LAKE MICHIGAN

STATION/POSITION TIME  TEMP WIND        PRES
                       AIR  DIR/SP/G
                 (UTC) (F)  (DEG/KT/KT) (MB)
MICHIGAN CITY    1700   53  250/ 13/ 16   N/A

$$

INZ004-005-014>016-021>024-201800-
NORTH CENTRAL INDIANA

CITY           SKY/WX    TMP DP  RH WIND       PRES   REMARKS
ELKHART        PTSUNNY   57  48  72 W7        29.83S
GOSHEN         PTSUNNY   58  49  72 SW8       29.82F
LOGANSPORT +   MOSUNNY   59  48  67 SW13      29.85F
PERU/GRISSOM   CLOUDY    57  54  88 SW15      29.84F
ROCHESTER +    MOSUNNY   61  50  67 SW13      29.83F
SOUTH BEND     PTSUNNY   60  48  64 VRB5      29.84S
WARSAW +       PTSUNNY   59  48  67 SW8       29.82F

$$

INZ006>009-017-018-025>027-201800-
NORTHEAST INDIANA

CITY           SKY/WX    TMP DP  RH WIND       PRES   REMARKS
ANGOLA *+      CLOUDY    50  39  66 SW8       29.82F
AUBURN +       PTSUNNY   54  46  76 SW6       29.84F
FORT WAYNE     CLOUDY    54  49  83 SW9       29.86F
HUNTINGTON +   CLOUDY    54  50  86 SW9       29.84F

$$

INZ028-029-035-036-043>045-051>053-201800-
WEST CENTRAL INDIANA

CITY           SKY/WX    TMP DP  RH WIND       PRES   REMARKS
GREENCASTLE +  PTSUNNY   59  50  72 SW3       29.90F
LAFAYETTE      SUNNY     61  50  67 W12       29.86F
TERRE HAUTE    MOSUNNY   63  51  65 SW9       29.90F

$$

INZ030>032-037>040-046>048-054>057-064-065-201800-
CENTRAL INDIANA

CITY           SKY/WX    TMP DP  RH WIND       PRES   REMARKS
ANDERSON       CLOUDY    54  48  82 SW12      29.89F
CP ATTERBURY + PTSUNNY   63  50  63 SW12G21   29.89F
COLUMBUS       MOSUNNY   61  52  72 SW14      29.90F
FRANKFORT +    MOSUNNY   60  51  72 SW9G18    29.88F HAZE
INDIANAPOLIS   LGT RAIN  56  49  77 SW15      29.89R
-EAGLE CREEK   CLOUDY    57  50  77 W7        29.88S
KOKOMO *+      CLOUDY    57 N/A N/A W13       29.86F
MARION +       CLOUDY    53  49  85 SW9       29.87F
MT COMFORT *+  PTSUNNY   57  46  67 SW12      29.89S
SHELBYVILLE    NOT AVBL
ZIONSVILLE +   PTSUNNY   59  48  67 SW15      29.88F

$$

INZ033-034-041-042-049-050-058-059-201800-
EAST CENTRAL INDIANA

CITY           SKY/WX    TMP DP  RH WIND       PRES   REMARKS
MUNCIE         PTSUNNY   54  51  90 W7        29.88R

$$

INZ060-061-067>069-081>083-085>088-201800-
SOUTHWEST INDIANA

CITY           SKY/WX    TMP DP  RH WIND       PRES   REMARKS
EVANSVILLE     MOSUNNY   64  51  62 SW13      29.97F
HUNTINGBURG *+ SUNNY     61  52  72 W13       29.96F
WASHINGTON +   SUNNY     63  52  65 SW13G20   29.92F

$$

INZ062-063-066-070>080-084-089>092-201800-
SOUTH CENTRAL AND SOUTHEAST INDIANA

CITY           SKY/WX    TMP DP  RH WIND       PRES   REMARKS
BLOOMINGTON    MOSUNNY   63  50  62 SW16      29.90F

$$




USA.gov is the U.S. government's official web portal to all federal, state and local government web resources and services.